[[{"header":{"parameterUnit":"m.s-1","parameterCategory":1,"la1":30.2992,"la2":30.254,"lo1":-89.0895,"lo2":-89.0443,"dy":0.0025,"dx":0.0025,"nx":19,"ny":19,"refTime":"2026-04-13T09:00:00:Z","depth":0,"parameterNumber":2,"parameterNumberName":"U-component_of_WINDS"},"data":[0,0,0,-3.0885,-3.0887,-3.0974,-3.0974,-3.1094,-3.1095,0,0,0,0,0,0,0,0,0,0,0,-3.0866,-3.0867,-3.0885,-3.0888,-3.0974,-3.0974,-3.1094,-3.1095,0,0,0,0,0,0,0,0,0,0,0,-3.0866,-3.0867,-3.0868,-3.0888,-3.0974,-3.0974,-3.1094,-3.1025,0,0,0,0,0,0,0,0,0,0,-3.094,-3.0928,-3.0866,-3.0868,-3.0888,-3.0974,-3.0974,-3.1022,-3.1029,-3.1059,0,-3.1088,0,-3.1094,-3.1104,-3.1104,0,0,0,-3.0883,-3.0921,-3.0939,-3.0868,-3.0889,-3.0973,-3.0933,-3.1026,-3.1035,-3.107,-3.1089,-3.1094,-3.1096,-3.1105,-3.1105,-3.1294,-3.1296,0,0,-3.0878,-3.0885,-3.0933,-3.0945,-3.0933,-3.0931,-3.0936,-3.1031,-3.1053,-3.109,-3.1096,-3.1098,-3.1106,-3.1107,-3.1293,-3.1295,0,0,0,-3.0868,-3.0882,-3.0897,-3.094,-3.0955,-3.0933,-3.094,-3.1049,-3.1053,-3.1098,-3.1099,-3.1106,-3.1108,-3.1292,-3.1294,-3.1354,0,0,0,-3.0865,-3.0875,-3.0895,-3.09,-3.0954,-3.1003,-3.0955,-3.1046,-3.1057,-3.1098,-3.1106,-3.1109,-3.1291,-3.1293,-3.1349,-3.138,0,0,0,-3.0858,-3.0875,-3.0889,-3.09,-3.0937,-3.1001,-3.1011,-3.1049,-3.1058,-3.1105,-3.111,-3.129,-3.1293,-3.1345,-3.1374,-3.1431,0,0,0,-3.0853,-3.0941,-3.089,-3.0989,-3.0937,-3.1038,-3.101,-3.1086,-3.1133,-3.1107,-3.1291,-3.1294,-3.1344,-3.137,-3.1427,-3.1478,-3.1501,0,0,-3.0968,-3.0955,-3.1013,-3.097,-3.1082,-3.1024,-3.1145,-3.1182,-3.1181,-3.1257,-3.1261,-3.1351,-3.1373,-3.143,-3.1629,-3.1647,0,0,0,-3.1052,-3.1093,-3.1121,-3.1166,-3.1197,-3.1226,-3.1244,-3.1258,-3.1321,-3.1221,-3.1387,-3.1401,-3.1434,-3.1458,-3.1473,-3.15,-3.1306,-3.1306,-3.1305,-3.1222,-3.1216,-3.131,-3.1315,-3.1359,-3.1377,-3.1412,-3.1434,-3.1415,-3.1454,-3.1476,-3.1598,-3.1627,-3.1638,-3.1666,-3.1505,-3.1505,-3.1505,-3.1505,-3.1388,-3.1444,-3.1418,-3.15,-3.1493,-3.1562,-3.1583,-3.1568,-3.1631,-3.1581,-3.1609,-3.1553,-3.1658,-3.1682,-3.151,-3.1509,-3.1508,-3.1508,-3.1508,-3.1497,-3.1523,-3.1539,-3.1603,-3.1654,-3.1656,-3.1718,-3.171,-3.1703,-3.1731,-3.1753,-3.1752,-3.1748,-3.1743,-3.1743,-3.1743,-3.1744,-3.1744,-3.1744,-3.1603,-3.1619,-3.1671,-3.1712,-3.174,-3.1776,-3.1796,-3.1823,-3.1851,-3.1841,-3.1841,-3.1817,-3.167,-3.1632,-3.1751,-3.175,-3.1749,-3.1748,-3.1748,-3.177,-3.1731,-3.1812,-3.1841,-3.1888,-3.1938,-3.1928,-3.1985,-3.2006,-3.2037,-3.2008,-3.1901,-3.1887,-3.1875,-3.1843,-3.201,-3.201,-3.201,-3.201,-3.186,-3.1853,-3.1935,-3.198,-3.2024,-3.2023,-3.2115,-3.2132,-3.2143,-3.2156,-3.2132,-3.209,-3.2078,-3.2071,-3.2055,-3.2025,-3.2234,-3.2234,-3.2234,-3.1962,-3.1959,-3.2039,-3.2049,-3.2086,-3.2117,-3.2203,-3.2257,-3.2261,-3.2243,-3.2166,-3.2157,-3.2089,-3.2068,-3.2045,-3.202,-3.1965,0,0]},{"header":{"parameterUnit":"m.s-1","parameterCategory":1,"la1":30.2992,"la2":30.254,"lo1":-89.0895,"lo2":-89.0443,"dy":0.0025,"dx":0.0025,"nx":19,"ny":19,"refTime":"2026-04-13T09:00:00:Z","depth":0,"parameterNumber":3,"parameterNumberName":"V-component_of_WINDS"},"data":[0,0,0,2.7992,2.7992,2.7971,2.7971,2.7956,2.7956,0,0,0,0,0,0,0,0,0,0,0,2.8006,2.8006,2.7992,2.7992,2.7971,2.7971,2.7956,2.7956,0,0,0,0,0,0,0,0,0,0,0,2.8006,2.8006,2.8006,2.7992,2.7971,2.7971,2.7956,2.7968,0,0,0,0,0,0,0,0,0,0,2.7986,2.8006,2.8006,2.8006,2.7992,2.7971,2.7971,2.7968,2.7967,2.7971,0,2.7977,0,2.7967,2.7956,2.7956,0,0,0,2.7986,2.8007,2.7995,2.8006,2.7992,2.7971,2.7979,2.7967,2.7966,2.797,2.7977,2.7976,2.7967,2.7956,2.7956,2.8002,2.8003,0,0,2.7987,2.8006,2.7996,2.7994,2.7999,2.798,2.7978,2.7966,2.7975,2.7977,2.7976,2.7966,2.7956,2.7956,2.8002,2.8002,0,0,0,2.7994,2.8007,2.7995,2.7995,2.7991,2.7979,2.7978,2.7976,2.797,2.7975,2.7966,2.7956,2.7956,2.8001,2.8002,2.8046,0,0,0,2.7995,2.8011,2.7996,2.8007,2.7991,2.7983,2.7987,2.7971,2.7969,2.7966,2.7956,2.7956,2.8001,2.8002,2.8043,2.8063,0,0,0,2.8005,2.8013,2.8012,2.8008,2.8,2.7983,2.7976,2.797,2.7964,2.7956,2.7956,2.8,2.8001,2.8041,2.806,2.8081,0,0,0,2.8021,2.8051,2.8013,2.8044,2.8001,2.801,2.7976,2.7982,2.7981,2.7956,2.8001,2.8002,2.8041,2.8057,2.8079,2.8103,2.8115,0,0,2.8069,2.8057,2.8074,2.804,2.8061,2.8012,2.804,2.802,2.8001,2.8003,2.8004,2.8044,2.8059,2.8081,2.8175,2.8185,0,0,0,2.8096,2.8108,2.8109,2.8109,2.8096,2.8086,2.806,2.8053,2.8053,2.8006,2.8057,2.8066,2.8078,2.8088,2.8096,2.8106,2.8008,2.8008,2.8007,2.8192,2.8167,2.8193,2.8166,2.8167,2.814,2.8139,2.8124,2.8098,2.8111,2.8111,2.8171,2.8185,2.8191,2.82,2.8122,2.8122,2.8122,2.8122,2.8261,2.8274,2.824,2.8253,2.8227,2.8237,2.8213,2.8194,2.82,2.8169,2.8178,2.8146,2.8202,2.8209,2.8125,2.8125,2.8124,2.8124,2.8124,2.8321,2.8323,2.8315,2.8314,2.8315,2.8287,2.8294,2.827,2.8247,2.8256,2.8254,2.8253,2.8249,2.8257,2.8257,2.8257,2.8257,2.8257,2.8257,2.8387,2.8376,2.8386,2.8375,2.8372,2.8366,2.8341,2.8337,2.8327,2.8309,2.8309,2.8282,2.8212,2.8195,2.8261,2.826,2.826,2.8259,2.8259,2.8467,2.8445,2.846,2.8458,2.8443,2.8447,2.8416,2.8412,2.8405,2.841,2.8381,2.8334,2.8319,2.8312,2.8298,2.8386,2.8386,2.8386,2.8386,2.8518,2.8509,2.8518,2.8517,2.8512,2.8486,2.8503,2.8484,2.8461,2.8456,2.8439,2.8418,2.8413,2.8402,2.8393,2.8379,2.8486,2.8486,2.8486,2.8565,2.8555,2.8574,2.8552,2.8539,2.8529,2.8545,2.8544,2.8513,2.849,2.8451,2.8447,2.8413,2.8403,2.8379,2.8366,2.834,0,0]}]]